Location: Perryvale
(54.4667°N, 113.3833°W)
Time: 00:26:48
(UTC+00:00)

SR - Pass Details

Date: 21 May 2024
Orbit: 580 x 858 km, 66.7° (Epoch: 13 June)

Event Time Altitude Azimuth Distance (km) Brightness Sun altitude
Rises 08:19:42 0° 316° (NW) 2,963 ? -14.5°
Reaches altitude 10° 08:22:14 10° 326° (NW) 2,010 ? -14.4°
Maximum altitude 08:26:21 34° 32° (NNE) 994 ? -14.3°
Drops below altitude 10° 08:30:17 10° 99° (E) 1,915 ? -14.1°
Sets 08:32:38 0° 109° (ESE) 2,800 ? -14.0°
